Location: Saint-Denis
(20.8800°S, 55.4481°E)
Time: 01:56:53
(UTC+04:00)

FENGYUN 1C DEB - Visible Passes

Search period start: 22 February 2024 00:00
Search period end: 03 March 2024 00:00
Orbit: 797 x 867 km, 98.6° (Epoch: 20 February)

Date Brightness Start Highest point End Pass type
(mag) Time Alt. Az. Time Alt. Az. Time Alt. Az.
22 Feb ? 19:07:28 10° SSE 19:12:42 43° E 19:17:47 10° N visible
22 Feb ? 20:49:18 10° SSW 20:52:33 16° WSW 20:55:45 10° WNW visible
23 Feb ? 20:31:02 10° SSW 20:35:23 24° WSW 20:39:41 10° NW visible
24 Feb ? 20:13:10 10° S 20:18:12 37° WSW 20:23:07 10° NW visible
25 Feb ? 05:49:40 10° E 05:50:53 11° ESE 05:52:08 10° SE visible
25 Feb ? 19:55:34 10° S 20:00:58 57° WSW 20:06:13 10° NNW visible
26 Feb ? 19:38:09 10° SSE 19:43:41 87° WSW 19:49:04 10° NNW visible
27 Feb ? 19:20:56 10° SSE 19:26:23 61° ENE 19:31:39 10° N visible
27 Feb ? 21:04:49 10° SW 21:06:03 11° WSW 21:07:16 10° W visible
28 Feb ? 19:03:56 10° SSE 19:09:01 39° E 19:13:58 10° NNE visible
28 Feb ? 20:45:29 10° SSW 20:48:55 17° WSW 20:52:19 10° WNW visible
29 Feb ? 20:27:17 10° SSW 20:31:45 26° WSW 20:36:07 10° NW visible
01 Mar ? 20:09:27 10° S 20:14:32 40° WSW 20:19:29 10° NW visible
02 Mar ? 19:51:53 10° S 19:57:17 62° WSW 20:02:31 10° NNW visible
